Tracking 30692 objects as of 16-Jun-2025
HD Live streaming from Space Station
objects crossing your sky now

CHINASAT 2D

Track CHINASAT 2D now!


NORAD ID: 43920
Int'l Code: 2019-001A
Perigee: 35,790.0 km
Apogee: 35,797.6 km
Inclination: 0.0 °
Period: 1,436.1 minutes
Semi major axis: 42164 km
RCS: Unknown
Launch date: January 10, 2019
Source: People's Republic of China (PRC)
Launch site: Xichang Space Center, China (XSC)
Your satellite tracking list
Your tracking list is empty




NASA's NSSDC Master Catalog

Two Line Element Set (TLE):
1 43920U 19001A   25166.91935513 -.00000325  00000-0  00000-0 0  9996
2 43920   0.0428 201.9235 0000905 333.1705 190.3401  1.00271688 50402
Source of the keplerian elements: AFSPC